This is the latest recevied weather packets stored in our database for station/object N3UJJ-1. If no packets are shown the sender has not sent any weather packets the latest 10 day(s).
| Time | Temp. | Humidity | Pressure | Rain* | Wind** | Luminosity | Snow |
|---|---|---|---|---|---|---|---|
| 1778116584 | 18.33° C | 91% | 1008.8 hPa | 0 mm | - | - | - |
| 1778115684 | 18.89° C | 90% | 1008.5 hPa | 0 mm | - | - | - |
| 1778114784 | 18.89° C | 89% | 1008.4 hPa | 0 mm | - | - | - |
| 1778113883 | 18.89° C | 88% | 1008.1 hPa | 0 mm | - | - | - |
| 1778112983 | 19.44° C | 87% | 1008.1 hPa | 0 mm | - | - | - |
| 1778112083 | 19.44° C | 86% | 1007.9 hPa | 0 mm | - | - | - |
| 1778111183 | 20° C | 86% | 1007.7 hPa | 0 mm | - | - | - |
| 1778110282 | 20° C | 85% | 1007.8 hPa | 0 mm | - | - | - |
| 1778109382 | 20.56° C | 84% | 1007.6 hPa | 0 mm | - | - | - |
| 1778108482 | 20.56° C | 83% | 1007.5 hPa | 0 mm | - | - | - |
| 1778107582 | 20.56° C | 83% | 1007.3 hPa | 0 mm | - | - | - |
| 1778106682 | 20.56° C | 83% | 1007.5 hPa | 0 mm | - | - | - |
| 1778105782 | 20.56° C | 82% | 1007.6 hPa | 0 mm | - | - | - |
| 1778104881 | 21.11° C | 82% | 1007.4 hPa | 0 mm | - | - | - |
| 1778103981 | 21.11° C | 82% | 1007.6 hPa | 0 mm | - | - | - |
| 1778103081 | 21.11° C | 81% | 1007.3 hPa | 0 mm | - | - | - |
| 1778102181 | 21.11° C | 82% | 1007.3 hPa | 0 mm | - | - | - |
| 1778101281 | 21.11° C | 81% | 1007 hPa | 0 mm | - | - | - |
| 1778100381 | 20.56° C | 82% | 1007 hPa | 0 mm | - | - | - |
| 1778099480 | 20.56° C | 82% | 1007 hPa | 0 mm | - | - | - |
| 1778098580 | 20.56° C | 83% | 1007.2 hPa | 0 mm | - | - | - |
| 1778097680 | 20.56° C | 83% | 1007.1 hPa | 0 mm | - | - | - |
| 1778096780 | 20° C | 83% | 1007 hPa | 0 mm | - | - | - |
| 1778095880 | 20° C | 83% | 1007.3 hPa | 0 mm | - | - | - |
| 1778094979 | 20° C | 83% | 1007.6 hPa | 0 mm | - | - | - |
* Rain latest hour (hover to see other rain measurements)
** Current wind speed in m/s (hover to see current wind gust speed)